Погода в Шунтуке

Россия / Республика Адыгея     44°27′05″N   40°10′13″E
темп.,
°C
ветер,
м/с
пор.,
м/с
влажн.,
%
обл.,
%
осадки,
мм/ч
давл.,
гПа
погр.,
м
22 апреля, чт
чт2200:00+8з1193100 0.0 102112
03:00+7з1195100 0.0 102211
06:00+7з1195100 0.0 102228
09:00+12ссз217674 0.0 1022604
12:00+13ссв2275100 0.0 1022924
15:00+12ссв1285100 0.2 1021397
18:00+11зюз129697 2.2 102261
21:00+8зюз229727 2.6 102349
23 апреля, пт
пт2300:00+7юз23987 0.0 102473
03:00+6юз23988 0.0 102456
06:00+6ю22971 0.0 102534
09:00+13сз11763 0.0 1024664
12:00+16сз344929 0.0 10221847
15:00+16с335177 0.0 10211300
18:00+14св2470100 0.0 1020293
21:00+10вюв2284100 0.1 102049
24 апреля, сб
сб2400:00+10ююз1180100 0.0 101926
03:00+9зюз1287100 0.0 102067
06:00+8ююз118796 0.0 102017
09:00+14ююв125286 0.0 1019557
12:00+19з6103587 0.0 10172514
15:00+18з7104342 0.0 10171803
18:00+14зсз4957100 0.0 1018706
21:00+11зсз1269100 0.0 1021170
25 апреля, вс
вс2500:00+8сз1293100 0.0 102297
03:00+7сз1193100 0.0 102284
06:00+7ссв1281100 0.0 1022162
09:00+9св2262100 0.0 1021591
12:00+7всв2393100 1.8 1020360
15:00+7св2397100 4.9 1019312
18:00+7св2599100 2.8 1019361
21:00+7всв2599100 5.4 1018362
26 апреля, пн
пн2600:00+7с13100100 2.1 1018197
03:00+7ссв13100100 3.5 1018189
06:00+7с12100100 3.1 1019165
09:00+7ссв1399100 7.2 1020208
12:00+7с1197100 2.8 1022282
15:00+7ссв1195100 3.7 1021283
18:00+8вюв1295100 0.0 1021154
21:00+6вюв1195100 0.0 102116